Stündliche Wetter Otkaznoe

Heute, 11 April, Sonntag

Zeit Temperatur Niederschläge Wind Luftdruck Luftfeuchtigkeit
00:00 +7°C° 0 mm 2 m/S 750 mmHg 80%
01:00 +6°C° 0 mm 2 m/S 750 mmHg 82%
02:00 +6°C° 0 mm 2 m/S 749 mmHg 83%
03:00 +7°C° 0 mm 1 m/S 749 mmHg 83%
04:00 +7°C° 0 mm 1 m/S 749 mmHg 84%
05:00 +7°C° 0 mm 1 m/S 749 mmHg 84%
06:00 +7°C° 0 mm 1 m/S 749 mmHg 84%
07:00 +8°C° 0 mm 1 m/S 749 mmHg 80%
08:00 +9°C° 0 mm 1 m/S 749 mmHg 76%
09:00 +11°C° 0 mm 1 m/S 749 mmHg 71%
10:00 +12°C° 0 mm 1 m/S 749 mmHg 68%
11:00 +13°C° 0 mm 2 m/S 749 mmHg 64%
12:00 +15°C° 0 mm 2 m/S 748 mmHg 60%
13:00 +15°C° 0 mm 2 m/S 748 mmHg 59%
14:00 +15°C° 0 mm 2 m/S 748 mmHg 59%
15:00 +15°C° 0 mm 2 m/S 747 mmHg 58%
16:00 +14°C° 0 mm 2 m/S 747 mmHg 61%
17:00 +14°C° 0 mm 2 m/S 747 mmHg 63%
18:00 +14°C° 0 mm 2 m/S 747 mmHg 65%
19:00 +13°C° 0 mm 1 m/S 747 mmHg 67%
20:00 +12°C° 0 mm 1 m/S 747 mmHg 68%
21:00 +12°C° 0 mm 1 m/S 747 mmHg 69%
22:00 +11°C° 0 mm 1 m/S 747 mmHg 72%
23:00 +11°C° 0 mm 1 m/S 747 mmHg 74%

Morgen, 12 April, Montag

Zeit Temperatur Niederschläge Wind Luftdruck Luftfeuchtigkeit
00:00 +9°C° 0 mm 2 m/S 747 mmHg 76%
01:00 +9°C° 0 mm 2 m/S 747 mmHg 78%
02:00 +9°C° 0 mm 2 m/S 747 mmHg 81%
03:00 +8°C° 0 mm 3 m/S 747 mmHg 83%
04:00 +8°C° 0 mm 3 m/S 747 mmHg 83%
05:00 +8°C° 0 mm 4 m/S 748 mmHg 82%
06:00 +8°C° 0 mm 4 m/S 748 mmHg 81%
07:00 +10°C° 0.1 mm 4 m/S 749 mmHg 78%
08:00 +10°C° 0.1 mm 5 m/S 749 mmHg 75%
09:00 +13°C° 0.1 mm 5 m/S 749 mmHg 71%
10:00 +13°C° 0 mm 5 m/S 749 mmHg 71%
11:00 +13°C° 0 mm 5 m/S 750 mmHg 71%
12:00 +13°C° 0 mm 5 m/S 750 mmHg 70%
13:00 +13°C° 0 mm 5 m/S 750 mmHg 72%
14:00 +13°C° 0 mm 5 m/S 750 mmHg 73%
15:00 +12°C° 0 mm 5 m/S 750 mmHg 74%
16:00 +10°C° 0 mm 5 m/S 750 mmHg 79%
17:00 +10°C° 0 mm 5 m/S 751 mmHg 80%
18:00 +10°C° 0 mm 4 m/S 751 mmHg 81%
19:00 +10°C° 0 mm 4 m/S 751 mmHg 81%
20:00 +10°C° 0 mm 3 m/S 751 mmHg 81%
21:00 +10°C° 0 mm 3 m/S 751 mmHg 82%
22:00 +9°C° 0 mm 3 m/S 751 mmHg 83%
23:00 +9°C° 0 mm 3 m/S 751 mmHg 84%

übermorgen, 13 April, Dienstag

Zeit Temperatur Niederschläge Wind Luftdruck Luftfeuchtigkeit
00:00 +9°C° 0 mm 3 m/S 751 mmHg 85%
01:00 +9°C° 0 mm 2 m/S 751 mmHg 86%
02:00 +9°C° 0 mm 2 m/S 751 mmHg 87%
03:00 +9°C° 0 mm 2 m/S 751 mmHg 88%
04:00 +9°C° 0 mm 2 m/S 751 mmHg 88%
05:00 +9°C° 0 mm 2 m/S 751 mmHg 88%
06:00 +9°C° 0 mm 2 m/S 751 mmHg 88%
07:00 +10°C° 0 mm 2 m/S 751 mmHg 86%
08:00 +10°C° 0 mm 2 m/S 751 mmHg 83%
09:00 +12°C° 0 mm 2 m/S 751 mmHg 81%
10:00 +12°C° 0 mm 2 m/S 751 mmHg 80%
11:00 +13°C° 0 mm 2 m/S 751 mmHg 79%
12:00 +13°C° 0 mm 2 m/S 751 mmHg 78%
13:00 +13°C° 0 mm 2 m/S 751 mmHg 78%
14:00 +14°C° 0 mm 2 m/S 751 mmHg 78%
15:00 +14°C° 0 mm 1 m/S 750 mmHg 78%
16:00 +14°C° 0 mm 2 m/S 750 mmHg 80%
17:00 +13°C° 0 mm 2 m/S 750 mmHg 82%
18:00 +12°C° 0 mm 3 m/S 750 mmHg 83%
19:00 +13°C° 0 mm 2 m/S 750 mmHg 85%
20:00 +12°C° 0 mm 2 m/S 750 mmHg 87%
21:00 +12°C° 0 mm 2 m/S 750 mmHg 88%
22:00 +10°C° 0 mm 2 m/S 749 mmHg 90%
23:00 +10°C° 0 mm 2 m/S 749 mmHg 91%

14 April, Mittwoch

Zeit Temperatur Niederschläge Wind Luftdruck Luftfeuchtigkeit
00:00 +10°C° 0 mm 2 m/S 748 mmHg 93%
01:00 +9°C° 0 mm 2 m/S 748 mmHg 92%
02:00 +9°C° 0 mm 2 m/S 747 mmHg 91%
03:00 +10°C° 0 mm 1 m/S 747 mmHg 90%
04:00 +9°C° 0 mm 2 m/S 747 mmHg 88%
05:00 +9°C° 0 mm 2 m/S 747 mmHg 87%
06:00 +9°C° 0 mm 2 m/S 747 mmHg 86%
07:00 +10°C° 0 mm 3 m/S 747 mmHg 81%
08:00 +11°C° 0 mm 3 m/S 747 mmHg 77%
09:00 +12°C° 0 mm 4 m/S 747 mmHg 72%
10:00 +13°C° 0 mm 4 m/S 747 mmHg 67%
11:00 +14°C° 0 mm 4 m/S 747 mmHg 62%
12:00 +15°C° 0 mm 5 m/S 747 mmHg 58%
13:00 +15°C° 0 mm 4 m/S 747 mmHg 59%
14:00 +16°C° 0 mm 3 m/S 747 mmHg 60%
15:00 +15°C° 0 mm 2 m/S 747 mmHg 61%
16:00 +14°C° 0 mm 3 m/S 747 mmHg 67%
17:00 +13°C° 0 mm 3 m/S 747 mmHg 72%
18:00 +12°C° 0 mm 3 m/S 747 mmHg 78%
19:00 +12°C° 0 mm 3 m/S 748 mmHg 79%
20:00 +12°C° 0 mm 4 m/S 748 mmHg 81%
21:00 +11°C° 0 mm 4 m/S 748 mmHg 83%
22:00 +11°C° 0 mm 4 m/S 748 mmHg 84%
23:00 +11°C° 0 mm 3 m/S 747 mmHg 85%

15 April, Donnerstag

Zeit Temperatur Niederschläge Wind Luftdruck Luftfeuchtigkeit
00:00 +11°C° 0 mm 3 m/S 747 mmHg 86%
01:00 +10°C° 0 mm 2 m/S 747 mmHg 86%
02:00 +10°C° 0 mm 2 m/S 747 mmHg 86%
03:00 +10°C° 0 mm 2 m/S 747 mmHg 87%
04:00 +10°C° 0 mm 2 m/S 747 mmHg 86%
05:00 +10°C° 0 mm 2 m/S 747 mmHg 86%
06:00 +10°C° 0 mm 2 m/S 747 mmHg 85%
07:00 +12°C° 0 mm 2 m/S 747 mmHg 80%
08:00 +13°C° 0 mm 2 m/S 747 mmHg 75%
09:00 +14°C° 0 mm 2 m/S 747 mmHg 69%
10:00 +16°C° 0 mm 2 m/S 747 mmHg 64%
11:00 +18°C° 0 mm 1 m/S 746 mmHg 59%
12:00 +19°C° 0 mm 1 m/S 746 mmHg 54%
13:00 +20°C° 0 mm 1 m/S 746 mmHg 50%
14:00 +21°C° 0 mm 1 m/S 745 mmHg 46%
15:00 +21°C° 0 mm 1 m/S 745 mmHg 42%
16:00 +21°C° 0 mm 1 m/S 745 mmHg 45%
17:00 +20°C° 0 mm 1 m/S 745 mmHg 49%
18:00 +20°C° 0 mm 1 m/S 745 mmHg 52%
19:00 +17°C° 0.2 mm 2 m/S 746 mmHg 59%
20:00 +16°C° 0.2 mm 2 m/S 746 mmHg 66%
21:00 +14°C° 0.2 mm 3 m/S 747 mmHg 74%
22:00 +14°C° 0 mm 2 m/S 746 mmHg 74%
23:00 +14°C° 0 mm 2 m/S 746 mmHg 75%

16 April, Freitag

Zeit Temperatur Niederschläge Wind Luftdruck Luftfeuchtigkeit
00:00 +13°C° 0 mm 2 m/S 746 mmHg 75%
01:00 +13°C° 0 mm 1 m/S 746 mmHg 76%
02:00 +13°C° 0 mm 1 m/S 746 mmHg 77%
03:00 +12°C° 0 mm 1 m/S 746 mmHg 78%
04:00 +12°C° 0 mm 1 m/S 746 mmHg 79%
05:00 +12°C° 0 mm 1 m/S 746 mmHg 80%
06:00 +12°C° 0 mm 1 m/S 746 mmHg 81%
07:00 +14°C° 0.1 mm 2 m/S 746 mmHg 75%
08:00 +15°C° 0.1 mm 2 m/S 747 mmHg 70%
09:00 +17°C° 0.1 mm 2 m/S 747 mmHg 64%
10:00 +18°C° 0.1 mm 2 m/S 747 mmHg 60%
11:00 +18°C° 0.1 mm 2 m/S 747 mmHg 57%
12:00 +19°C° 0.1 mm 2 m/S 747 mmHg 54%
13:00 +19°C° 0.1 mm 2 m/S 746 mmHg 53%
14:00 +20°C° 0.1 mm 3 m/S 746 mmHg 53%
15:00 +20°C° 0.1 mm 3 m/S 746 mmHg 53%
16:00 +19°C° 0.2 mm 3 m/S 746 mmHg 59%
17:00 +17°C° 0.2 mm 2 m/S 746 mmHg 65%
18:00 +16°C° 0.2 mm 2 m/S 746 mmHg 71%
19:00 +16°C° 0.6 mm 2 m/S 746 mmHg 76%
20:00 +15°C° 0.6 mm 1 m/S 746 mmHg 82%
21:00 +14°C° 0.6 mm 1 m/S 747 mmHg 87%
22:00 +14°C° 0 mm 1 m/S 746 mmHg 87%
23:00 +13°C° 0 mm 1 m/S 746 mmHg 87%
Mehr zeigen

Wir brauchen deine Erlaubnis

Meteoprog und unser Service Anbieter werden persönliche Daten aufbewahren, so wie Cookies, Geräte Bezeichnung oder ähnliche Technologien von deinem Gerät und Prozess, so wie Persönliche Daten Inhalte und Werbungen, genauso wie social Media und den Verkehr zu analysieren.

  • Aufbewahrung und/oder Zugang zu deiner Geräte Informationen.

    Cookies, Geräte Bezeichnung oder andere Informationen, können aufbewahrt oder Zugang zu deinem Gerät erhalten, für den Grund, der oben angegeben wird.

  • Personalisierte Werbung und Inhalte, Messungen, Einblick in das Publikum und Produkt Entwicklung.

    Werbungen und Inhalte können personalisiert werden, basierend auf ein Profil. Mehr Daten können besser personalisierte Werbungen und Inhalte hinzufügen. Werbung und Inhalte können gezeigt und gemessen werden. Einblicke über das Publikum, welche die Werbung gesehen haben und den Inhalt, können abgeleitet werden. So wie Daten können genutzt werden, um es zu verbessern oder die Benutzer Erfahrung zu verbessern das System und die Software.

Wenn du “Ich stimme zu” klickst, erlaubst du uns, die Cookies zu benutzen die Geräte Bezeichnung, den Web oder ähnliche Technologien zu benutzen. Deine Settings, können in deinem Gerät bei deinem Browser geändert werden.

Für den bestimmten Zweck, berechtigten Interessen beruhen darauf, mehr als auf den Inhalt. Du kannst mehr darüber in unseren Privaten und Cookie Politik lesen.